Wind_Speed
6 6 6 5 4 4 4 5 6 6 7 7 7 7 7 8 9 9 11 11 11 10 10 11 11 12 11 12 12 12 12 11 11 11 11 11 12 12 12 13 13 13 13 13 13 13 13 13 14
4 4 4 4 5 4 4 5 6 7 7 7 8 8 8 9 10 10 11 12 11 11 12 12 13 14 14 15 15 15 15 15 14 14 14 14 13 13 12 13 13 13 13 12 12 12 13 13 13
3 2 3 3 4 5 6 7 7 8 8 9 9 9 10 10 11 12 13 13 13 13 13 14 15 16 16 17 17 18 18 18 18 17 17 16 15 14 13 13 13 13 12 12 12 12 12 12 12
3 3 4 4 5 6 7 8 9 9 10 10 11 11 12 13 13 14 15 15 16 16 16 17 17 18 18 19 19 19 20 21 21 21 20 19 18 17 15 14 14 13 12 12 12 11 11 11 11
4 4 5 6 6 8 9 10 11 12 12 13 14 14 15 16 17 17 18 19 19 19 19 20 20 21 20 21 22 22 22 23 24 24 23 23 22 20 18 17 16 15 13 12 12 11 11 10 10
6 6 7 7 8 9 11 12 13 14 15 16 17 17 18 19 20 21 22 23 23 24 24 24 24 23 23 22 22 23 24 24 24 25 26 26 25 23 21 20 19 17 15 14 13 12 11 10 10
7 8 9 10 11 12 13 14 16 17 18 19 20 21 21 22 23 24 26 27 27 27 27 27 27 27 26 26 25 25 25 26 26 26 28 28 27 27 25 23 21 20 18 16 14 13 12 11 11
10 10 10 12 13 14 15 16 18 20 21 22 23 23 24 24 26 27 28 29 30 30 30 30 30 30 30 29 28 29 29 28 28 27 28 29 28 27 27 26 24 23 21 19 17 15 13 12 11
11 11 11 14 16 16 17 19 20 21 22 23 24 25 26 27 28 29 30 30 30 31 31 32 32 32 32 32 32 31 32 31 31 31 30 30 28 26 26 26 25 24 23 21 19 18 16 14 13
13 13 13 15 17 18 19 21 22 23 23 24 25 26 27 28 29 30 30 31 31 32 32 33 33 33 33 32 32 32 33 34 34 34 33 32 31 30 29 27 27 26 24 24 22 20 19 17 15
15 15 16 17 19 19 20 21 23 25 25 26 26 27 27 28 29 30 31 30 30 30 30 31 31 31 31 31 32 32 33 34 35 36 36 35 34 33 31 30 29 28 27 26 25 24 22 20 18
17 17 18 18 19 20 21 22 23 25 26 26 26 27 27 28 28 27 27 27 27 27 27 28 29 30 30 30 31 31 33 33 34 35 36 37 37 36 34 32 31 32 30 29 28 26 25 22 21
18 18 18 19 19 21 22 23 23 24 25 25 26 26 27 26 25 25 25 25 26 26 26 26 27 27 28 28 29 30 31 32 33 34 35 36 37 38 37 35 34 33 34 31 29 28 25 25 24
17 17 18 19 20 21 22 23 23 22 23 24 25 25 24 23 23 24 24 24 24 24 23 23 24 24 25 26 26 27 28 29 31 32 33 34 35 37 38 37 36 35 35 33 31 29 27 25 24
18 19 19 19 20 20 22 23 22 22 23 23 23 22 22 22 22 22 22 23 23 23 23 23 23 23 23 24 24 25 26 27 28 30 30 31 32 34 36 36 37 36 36 35 32 31 30 28 25
18 18 18 18 18 19 21 23 22 22 22 21 21 20 20 20 20 20 21 21 22 22 22 22 22 21 21 22 23 23 24 25 26 27 28 29 30 32 33 34 35 36 36 37 35 33 31 29 28
15 15 15 18 18 18 19 21 22 20 19 19 18 19 18 18 18 19 20 21 21 21 21 21 21 21 21 21 21 21 22 22 23 24 25 27 28 29 31 32 33 35 36 36 36 35 34 32 31
15 14 13 18 20 19 19 20 20 17 16 16 16 16 16 17 18 19 20 21 21 21 21 21 21 21 20 19 18 18 18 18 19 21 22 24 26 27 29 30 32 32 33 34 35 36 35 35 33
16 14 15 19 20 18 19 18 18 15 14 14 14 14 15 16 17 18 19 21 21 21 21 21 21 20 19 18 18 17 16 15 15 16 18 20 22 24 26 28 29 30 31 32 33 35 36 35 34
15 15 15 19 18 16 16 14 13 12 11 12 12 13 14 15 17 18 19 20 21 21 21 21 21 20 20 19 18 17 16 15 14 13 14 16 18 20 22 24 26 28 29 31 32 33 35 36 35
15 17 16 17 16 14 12 10 8 8 9 10 11 12 13 15 16 18 19 20 21 21 21 21 21 21 20 19 19 17 16 15 14 12 12 13 14 17 19 21 23 25 27 29 31 32 34 35 36
16 16 14 13 13 10 8 8 7 7 8 9 10 11 13 14 16 17 18 19 20 21 21 21 21 22 21 20 20 19 17 16 14 13 11 11 12 14 16 19 21 22 24 27 29 31 32 33 35
16 12 11 10 8 7 5 6 8 7 8 8 10 11 13 14 15 16 17 19 20 21 21 21 22 22 22 21 21 20 19 17 16 14 13 12 12 12 13 15 18 20 22 24 27 30 31 33 34
12 10 8 6 5 3 4 5 7 6 7 8 9 11 12 13 14 15 16 18 19 20 21 22 22 22 22 22 22 21 20 19 18 17 15 14 13 13 13 13 15 17 20 22 24 27 30 32 34
11 9 6 1 5 6 5 5 6 6 7 8 9 10 11 12 13 14 16 17 19 20 21 22 23 23 23 23 23 22 21 21 20 19 18 16 14 13 13 14 14 15 18 20 22 25 28 30 32
11 10 9 7 3 9 8 6 4 4 6 7 8 9 10 11 12 14 15 17 18 19 20 22 23 23 24 24 24 23 23 22 22 21 20 18 16 15 14 14 14 15 17 19 22 24 26 28 31
11 10 10 10 11 7 7 5 2 4 5 6 7 8 9 10 11 13 14 16 17 19 20 21 22 23 24 24 24 24 24 23 23 22 22 20 18 16 15 14 15 15 16 18 20 22 25 27 29
11 10 10 10 10 6 7 8 4 3 4 5 5 7 8 9 10 12 14 15 17 18 19 20 21 22 23 24 24 24 24 25 24 24 23 22 20 18 16 16 16 15 16 17 18 20 23 25 27
11 10 10 10 9 9 7 7 3 2 3 3 5 6 7 9 10 12 13 15 16 17 18 19 20 21 22 23 24 24 24 25 25 25 25 24 23 20 18 18 17 17 16 16 17 19 21 23 26
10 10 11 11 10 8 7 3 2 1 1 3 4 5 7 8 10 11 13 14 15 17 18 19 20 21 22 22 23 24 24 24 24 25 25 25 24 23 21 20 19 18 17 17 16 17 19 20 23
Wind_Direction
41 43 51 41 33 30 21 8 2 356 346 339 334 331 329 322 315 309 307 304 302 293 285 280 278 274 268 265 262 261 257 255 253 253 253 254 254 253 252 250 248 247 246 247 248 245 245 245 244
24 31 40 22 3 3 358 358 348 344 336 331 327 323 320 316 311 307 304 303 302 296 290 281 277 275 269 265 262 259 257 254 253 253 254 253 253 253 253 253 252 250 249 249 250 248 247 247 246
1 10 11 351 335 339 345 345 341 332 325 319 317 315 313 311 311 306 303 302 301 298 292 288 282 281 274 267 263 261 259 253 248 250 251 251 250 251 251 253 253 252 251 251 250 249 249 246 244
322 318 328 323 319 321 324 327 323 321 318 313 311 308 307 306 306 303 300 299 298 294 290 289 286 285 280 272 265 264 262 256 248 247 249 248 246 247 247 249 251 251 249 249 250 249 247 244 242
303 309 309 300 304 303 308 313 314 312 310 309 308 306 305 304 302 301 298 296 295 291 288 286 284 284 280 274 267 265 263 259 253 248 247 246 244 245 245 245 246 246 246 246 248 248 245 243 241
287 291 293 289 290 298 300 302 305 307 308 306 305 303 303 301 299 298 296 294 292 290 287 286 282 282 280 278 271 265 262 258 258 254 251 248 246 245 245 243 243 243 243 244 244 245 242 240 239
273 280 287 294 290 296 298 300 303 305 305 305 304 303 302 299 297 296 295 293 292 290 287 285 282 281 279 276 272 267 263 260 258 258 257 253 249 247 246 243 241 241 241 240 240 242 240 237 236
274 281 290 288 287 295 298 300 303 305 305 304 304 304 302 300 298 297 295 293 292 290 287 286 283 282 279 276 273 270 265 263 260 262 262 257 253 250 248 248 244 242 240 238 238 237 237 235 234
274 278 277 277 287 295 299 301 304 306 306 306 306 305 304 302 300 299 297 295 293 290 288 286 284 282 279 276 274 270 266 264 262 262 261 258 255 252 249 250 248 244 241 237 236 236 234 233 230
273 274 276 283 292 297 302 305 307 308 308 308 308 307 306 305 303 301 299 297 294 292 290 288 285 283 281 278 275 271 268 265 263 262 262 261 259 258 254 251 251 247 243 239 236 236 233 230 229
273 275 279 287 294 300 304 307 309 310 311 312 312 311 310 308 307 305 303 301 299 296 294 291 289 286 283 280 277 273 269 267 265 265 264 261 260 261 259 257 254 250 247 243 239 236 233 231 229
269 276 282 288 295 301 305 308 310 312 313 315 315 315 314 313 311 310 308 307 305 302 299 295 292 289 287 283 280 276 273 270 267 265 264 263 260 259 257 256 255 251 249 245 241 238 235 231 228
268 275 281 290 297 303 306 309 312 314 314 316 317 317 316 316 316 315 313 311 310 308 304 302 298 295 292 288 284 279 275 272 268 266 265 263 260 257 256 255 255 253 250 248 243 241 237 232 228
271 277 287 296 301 305 308 310 313 315 316 317 318 319 319 319 319 318 318 317 317 315 312 310 306 302 298 294 288 283 277 273 270 267 265 264 262 260 257 256 256 255 252 248 244 242 238 235 231
277 285 293 299 303 308 310 311 315 318 318 319 320 322 322 323 323 324 323 323 322 320 317 315 312 309 304 299 294 288 281 276 271 267 265 262 260 260 259 257 257 254 253 252 249 245 243 240 237
278 289 297 300 301 309 311 312 318 320 320 322 323 326 328 329 330 331 331 330 328 326 325 322 320 316 311 306 300 293 287 280 273 268 265 262 259 258 258 257 256 254 254 253 253 250 247 243 240
284 294 296 297 298 308 312 312 318 320 322 324 327 329 333 337 339 340 339 338 336 335 333 331 328 324 319 314 308 302 294 285 276 270 266 262 260 258 256 256 255 254 253 253 254 253 251 246 243
274 277 284 295 299 309 312 314 317 322 324 327 331 335 340 345 347 348 347 346 345 343 341 340 337 333 330 325 321 316 308 297 285 275 269 264 260 259 257 256 255 254 252 251 251 250 252 249 245
258 271 284 286 297 305 309 312 316 325 327 330 336 342 348 352 353 354 353 353 353 352 351 350 348 345 342 338 334 329 324 315 301 286 275 267 262 260 258 257 255 253 251 250 249 248 249 249 247
260 271 275 280 293 300 304 309 316 327 334 339 344 349 353 355 356 358 358 359 360 360 359 358 356 355 352 350 347 342 337 330 319 304 288 276 268 264 261 258 256 253 251 250 248 247 247 247 247
264 269 270 280 294 300 301 308 321 332 341 345 350 354 355 356 357 360 1 3 4 5 5 4 4 3 1 359 357 353 348 343 337 324 307 291 279 272 267 262 258 256 253 251 249 247 247 246 246
258 264 275 282 287 295 311 322 335 346 349 351 355 357 359 359 1 2 3 6 8 9 9 8 9 9 8 7 5 3 359 354 349 341 330 313 297 285 276 269 263 259 256 252 249 248 247 246 244
257 269 274 278 282 287 311 327 325 348 351 354 356 358 360 2 3 5 9 11 13 14 15 15 14 13 12 11 10 9 7 3 358 350 341 330 317 303 292 280 269 262 258 255 251 249 247 247 244
255 257 259 268 280 298 310 318 313 350 353 355 358 360 2 6 9 12 15 16 18 19 19 18 17 16 15 15 14 13 11 8 4 359 350 340 328 317 306 294 281 269 262 258 254 251 249 248 247
242 237 223 287 353 326 301 298 302 348 352 355 358 1 7 12 16 18 19 21 21 21 20 20 19 19 18 17 16 15 13 12 8 4 358 350 341 329 318 307 294 280 270 264 259 255 251 249 248
231 223 204 171 197 276 282 286 316 339 347 354 358 4 11 17 19 21 22 23 22 21 21 21 21 21 20 20 19 18 17 15 13 10 5 359 352 342 331 320 308 295 282 272 265 260 255 252 250
226 220 218 203 192 213 280 288 309 325 343 352 360 7 14 18 21 22 22 23 22 22 21 21 20 20 19 19 19 19 18 16 14 12 9 5 359 352 342 332 322 308 294 282 272 265 258 255 252
226 219 207 195 185 177 267 285 300 318 338 352 5 13 19 22 22 22 21 21 21 20 19 19 18 18 18 18 18 17 16 15 14 11 9 6 2 357 351 342 333 322 308 294 282 273 264 259 255
214 209 205 205 200 181 216 264 285 315 341 2 14 21 24 24 22 21 19 17 17 17 16 15 15 15 15 15 15 15 14 13 13 12 10 8 6 3 357 350 342 334 323 308 293 282 272 264 259
218 209 204 203 200 203 219 227 239 293 6 19 22 21 20 17 15 14 13 12 12 11 11 11 11 11 11 10 10 10 10 10 10 9 9 9 8 6 1 355 350 342 333 321 308 293 281 271 263
Height
5910 5909 5909 5909 5909 5908 5907 5907 5906 5906 5905 5904 5903 5903 5903 5903 5903 5904 5901 5899 5898 5898 5897 5897 5897 5896 5896 5896 5895 5895 5894 5894 5893 5893 5893 5892 5892 5892 5892 5892 5892 5892 5892 5892 5893 5893 5894 5894 5895
5911 5910 5911 5910 5908 5907 5907 5906 5906 5906 5905 5904 5903 5903 5903 5902 5901 5900 5899 5898 5897 5897 5896 5896 5895 5894 5894 5894 5893 5893 5893 5892 5892 5892 5891 5891 5891 5891 5891 5891 5891 5891 5891 5891 5891 5892 5892 5892 5893
5911 5911 5912 5910 5908 5907 5907 5906 5906 5905 5904 5903 5903 5903 5902 5901 5900 5899 5897 5896 5896 5895 5894 5894 5893 5892 5891 5891 5891 5890 5890 5889 5889 5889 5889 5889 5889 5889 5889 5889 5889 5889 5889 5890 5890 5890 5890 5891 5891
5912 5912 5912 5911 5908 5907 5907 5907 5905 5905 5904 5903 5902 5902 5900 5899 5898 5897 5896 5895 5894 5893 5892 5891 5890 5889 5888 5888 5887 5887 5886 5886 5886 5886 5886 5886 5886 5886 5887 5887 5887 5888 5888 5888 5888 5888 5888 5889 5889
5911 5912 5911 5909 5907 5907 5906 5905 5904 5904 5903 5902 5901 5900 5899 5898 5896 5895 5893 5892 5891 5890 5889 5887 5887 5886 5885 5884 5883 5883 5883 5882 5882 5882 5883 5883 5883 5884 5884 5884 5885 5885 5885 5886 5886 5886 5887 5887 5887
5911 5911 5910 5907 5906 5905 5905 5904 5903 5902 5901 5900 5899 5898 5897 5895 5893 5892 5890 5889 5887 5886 5885 5883 5882 5882 5881 5880 5879 5879 5878 5878 5878 5878 5879 5879 5880 5880 5881 5881 5882 5882 5883 5883 5884 5884 5885 5885 5886
5910 5909 5907 5906 5905 5904 5904 5902 5901 5900 5899 5898 5897 5895 5893 5892 5890 5888 5886 5884 5882 5881 5879 5878 5877 5876 5875 5875 5875 5874 5874 5874 5874 5874 5874 5875 5875 5876 5877 5877 5878 5879 5880 5881 5881 5882 5883 5883 5884
5907 5909 5906 5904 5903 5903 5902 5901 5899 5898 5897 5895 5894 5892 5890 5888 5886 5883 5881 5879 5877 5875 5873 5872 5870 5870 5869 5869 5868 5868 5868 5868 5868 5869 5869 5870 5870 5871 5872 5873 5874 5875 5876 5877 5878 5879 5880 5881 5881
5905 5907 5904 5902 5901 5901 5899 5898 5897 5895 5894 5892 5890 5888 5886 5883 5880 5878 5875 5873 5871 5869 5867 5865 5864 5862 5861 5861 5861 5861 5861 5862 5862 5863 5863 5864 5865 5866 5867 5868 5870 5871 5872 5874 5875 5876 5877 5878 5879
5903 5903 5901 5898 5898 5898 5897 5895 5893 5892 5890 5889 5886 5884 5881 5878 5875 5872 5870 5867 5865 5862 5860 5858 5856 5855 5854 5853 5853 5853 5853 5854 5855 5856 5857 5858 5859 5860 5862 5863 5865 5866 5868 5869 5871 5872 5874 5875 5876
5900 5900 5898 5897 5896 5895 5894 5893 5890 5888 5886 5884 5882 5879 5876 5873 5870 5867 5863 5861 5858 5856 5853 5851 5849 5847 5847 5846 5845 5845 5845 5845 5846 5847 5849 5850 5852 5854 5856 5857 5859 5861 5863 5864 5866 5868 5869 5871 5873
5896 5896 5896 5895 5894 5892 5891 5890 5888 5885 5883 5880 5877 5874 5871 5868 5865 5862 5858 5855 5853 5850 5847 5845 5842 5841 5839 5838 5837 5837 5837 5837 5838 5839 5840 5842 5844 5846 5848 5851 5852 5855 5857 5859 5861 5863 5865 5867 5869
5892 5892 5892 5892 5891 5890 5888 5886 5885 5882 5880 5877 5874 5871 5867 5864 5860 5857 5854 5851 5848 5845 5842 5839 5837 5834 5832 5831 5830 5829 5829 5829 5830 5830 5832 5833 5835 5838 5840 5843 5845 5848 5850 5853 5856 5858 5860 5862 5865
5888 5888 5888 5889 5888 5887 5885 5883 5882 5879 5877 5874 5870 5867 5864 5860 5857 5854 5850 5847 5844 5840 5837 5834 5831 5829 5826 5824 5823 5821 5821 5821 5821 5822 5823 5825 5826 5829 5831 5835 5838 5840 5843 5846 5849 5851 5854 5857 5859
5886 5887 5887 5887 5885 5883 5882 5880 5878 5876 5873 5870 5867 5864 5861 5857 5854 5851 5847 5844 5840 5837 5833 5830 5827 5824 5821 5818 5816 5814 5813 5813 5813 5814 5815 5816 5818 5820 5823 5826 5829 5833 5836 5839 5842 5845 5848 5851 5854
5885 5885 5884 5883 5882 5880 5881 5877 5875 5873 5870 5867 5864 5861 5858 5855 5852 5848 5845 5841 5837 5833 5830 5826 5823 5819 5816 5813 5810 5808 5807 5806 5806 5806 5807 5808 5810 5812 5815 5818 5821 5824 5828 5831 5834 5838 5841 5845 5848
5882 5882 5880 5879 5878 5878 5877 5875 5872 5870 5867 5865 5862 5859 5856 5853 5850 5846 5843 5839 5835 5831 5827 5823 5819 5816 5812 5809 5806 5803 5801 5799 5799 5799 5800 5801 5802 5804 5807 5810 5813 5816 5820 5823 5827 5830 5834 5838 5841
5880 5879 5877 5877 5875 5876 5874 5872 5870 5868 5865 5863 5860 5858 5855 5852 5848 5845 5841 5837 5833 5829 5825 5821 5817 5813 5809 5805 5802 5799 5796 5794 5793 5793 5793 5794 5796 5798 5800 5802 5805 5808 5812 5815 5819 5823 5827 5830 5834
5877 5877 5877 5876 5874 5874 5872 5871 5868 5866 5864 5862 5859 5857 5854 5851 5848 5845 5841 5837 5832 5828 5823 5819 5815 5811 5807 5803 5800 5796 5794 5791 5789 5788 5788 5788 5790 5791 5793 5795 5798 5801 5804 5808 5811 5815 5819 5823 5827
5874 5875 5876 5874 5872 5872 5870 5869 5866 5864 5863 5861 5859 5856 5853 5851 5847 5844 5840 5836 5832 5827 5823 5818 5814 5810 5805 5802 5798 5795 5792 5789 5787 5785 5784 5784 5785 5786 5787 5789 5791 5794 5797 5800 5804 5807 5811 5815 5819
5872 5872 5873 5872 5871 5870 5869 5867 5865 5864 5862 5861 5858 5856 5853 5851 5847 5844 5840 5836 5832 5827 5823 5818 5814 5810 5805 5801 5797 5794 5790 5788 5785 5783 5782 5781 5781 5781 5782 5783 5785 5787 5790 5793 5796 5799 5803 5807 5811
5870 5869 5870 5870 5869 5867 5867 5865 5864 5863 5862 5860 5858 5856 5853 5851 5847 5844 5840 5836 5832 5828 5823 5819 5814 5810 5806 5802 5798 5794 5790 5787 5784 5782 5780 5779 5778 5778 5778 5778 5779 5781 5783 5786 5788 5792 5795 5798 5802
5866 5868 5868 5867 5866 5866 5865 5864 5864 5862 5861 5860 5858 5856 5853 5851 5848 5844 5841 5837 5833 5828 5824 5819 5815 5811 5807 5802 5798 5794 5791 5787 5784 5781 5779 5777 5776 5775 5774 5774 5774 5775 5777 5779 5781 5784 5787 5791 5794
5864 5865 5865 5865 5865 5865 5865 5865 5864 5862 5861 5859 5858 5856 5853 5851 5848 5845 5841 5837 5833 5829 5825 5821 5817 5812 5808 5803 5799 5795 5791 5788 5784 5781 5778 5776 5774 5772 5771 5770 5770 5770 5771 5773 5774 5777 5779 5782 5786
5862 5863 5864 5864 5865 5865 5864 5864 5864 5862 5861 5859 5858 5856 5853 5851 5848 5845 5842 5838 5835 5831 5827 5822 5818 5813 5809 5805 5800 5796 5792 5789 5785 5781 5778 5775 5772 5770 5768 5767 5766 5765 5766 5767 5768 5770 5772 5774 5777
5859 5861 5862 5863 5867 5866 5864 5863 5863 5862 5861 5859 5858 5856 5854 5851 5849 5846 5843 5839 5836 5832 5828 5824 5820 5815 5811 5806 5802 5798 5793 5789 5785 5781 5778 5774 5771 5768 5766 5764 5762 5762 5761 5761 5762 5763 5765 5767 5769
5857 5858 5859 5861 5862 5863 5863 5862 5862 5861 5860 5859 5857 5856 5854 5852 5849 5847 5844 5840 5837 5833 5829 5825 5821 5817 5813 5808 5804 5799 5795 5791 5786 5782 5778 5774 5770 5767 5764 5762 5760 5758 5757 5756 5756 5757 5758 5759 5761
5856 5856 5857 5859 5860 5862 5864 5861 5861 5860 5859 5859 5857 5856 5854 5852 5850 5847 5844 5841 5838 5834 5831 5827 5823 5819 5814 5810 5805 5801 5796 5792 5787 5782 5778 5773 5769 5765 5763 5760 5757 5755 5753 5751 5750 5750 5751 5752 5753
5854 5856 5856 5858 5859 5860 5861 5862 5860 5860 5859 5858 5857 5856 5854 5852 5850 5848 5845 5842 5839 5835 5832 5828 5824 5820 5816 5811 5807 5802 5798 5793 5788 5783 5778 5773 5769 5765 5761 5758 5755 5752 5749 5747 5745 5744 5744 5744 5745
5853 5854 5855 5857 5858 5858 5859 5862 5859 5859 5858 5858 5857 5856 5854 5852 5850 5848 5845 5843 5839 5836 5833 5829 5825 5821 5817 5812 5808 5803 5799 5794 5789 5784 5779 5774 5769 5765 5761 5757 5753 5749 5746 5743 5740 5738 5737 5737 5737